カタログに戻る

CZ-4 DEB

運用中SSO
NORAD 26313·DEBRIS·🇨🇳 China

打ち上げ Oct 14, 1999 から Taiyuan Satellite Launch Center

Loading…

次のパス (今後24時間)

TLE

最新Source: Space-Track

元期: Sep 14, 2026, 04:23 UTC

1 26313U 99057GW  26257.18313209  .00001434  00000-0  30996-3 0  9996
2 26313  98.4391 325.5211 0071219 206.4605 177.5349 14.58350329394993

AllMySatでCZ-4 DEBをリアルタイム追跡

Download on the App Store